This demonstration page uses our WeatherBlox Daily Observations layout. Learn more.

Left ArrowRight Arrow

Hourly Observations for February 29, 2016

Temp ( °F °C ) Dew Point ( °F °C ) Humidity (%) Winds ( mph kmh ) Pressure ( in mb ) Visibility ( mi km ) Precip ( " mm )
12:15 am 00:15 Clear 36 2 21 -6 56 56 SSE 9 15 30.03 1017 10 16 0.00 0.00
12:35 am 00:35 Clear 34 1 21 -6 60 60 E 9 15 30.00 1016 10 16 0.00 0.00
12:55 am 00:55 Clear 36 2 21 -6 56 56 E 8 13 30.00 1016 10 16 0.00 0.00
1:15 am 01:15 Clear 34 1 21 -6 60 60 undefined N/A 30.00 1016 10 16 0.00 0.00
1:35 am 01:35 Clear 36 2 21 -6 56 56 E 7 11 30.00 1016 10 16 0.00 0.00
1:55 am 01:55 Clear 36 2 21 -6 56 56 SSE 7 11 30.00 1016 10 16 0.00 0.00
2:15 am 02:15 Clear 36 2 23 -5 60 60 ENE 9 15 30.00 1016 10 16 0.00 0.00
2:35 am 02:35 Clear 37 3 23 -5 56 56 SE 14 22 29.97 1015 10 16 0.00 0.00
2:55 am 02:55 Clear 36 2 23 -5 60 60 SSE 12 19 29.97 1015 10 16 0.00 0.00
3:15 am 03:15 Clear 36 2 23 -5 60 60 SSE 12 19 29.97 1015 10 16 0.00 0.00
3:35 am 03:35 Clear 36 2 23 -5 60 60 S 13 20 29.94 1014 10 16 0.00 0.00
3:55 am 03:55 Clear 36 2 23 -5 60 60 S 10 17 29.94 1014 10 16 0.00 0.00
4:15 am 04:15 Clear 36 2 25 -4 65 65 S 10 17 29.94 1014 10 16 0.00 0.00
4:35 am 04:35 Clear 36 2 25 -4 65 65 S 12 19 29.94 1014 10 16 0.00 0.00
4:55 am 04:55 Clear 36 2 25 -4 65 65 SSW 15 24 29.94 1014 10 16 0.00 0.00
5:15 am 05:15 Clear 36 2 25 -4 65 65 SSW 15 24 29.94 1014 10 16 0.00 0.00
5:35 am 05:35 Clear 37 3 25 -4 60 60 SSW 14 22 29.94 1014 10 16 0.00 0.00
5:55 am 05:55 Clear 37 3 25 -4 60 60 WSW 10 17 29.94 1014 10 16 0.00 0.00
6:15 am 06:15 Clear 39 4 27 -3 61 61 SW 15 24 29.91 1013 10 16 0.00 0.00
6:35 am 06:35 Clear 39 4 25 -4 56 56 SW 16 26 29.88 1012 10 16 0.00 0.00
6:55 am 06:55 Clear 39 4 25 -4 56 56 SW 14 22 29.88 1012 10 16 0.00 0.00
7:15 am 07:15 Sunny 39 4 25 -4 56 56 SW 14 22 29.88 1012 10 16 0.00 0.00
7:35 am 07:35 Sunny 39 4 25 -4 56 56 S 14 22 29.88 1012 10 16 0.00 0.00
7:55 am 07:55 Sunny 39 4 27 -3 61 61 S 13 20 29.88 1012 10 16 0.00 0.00
8:15 am 08:15 Sunny 41 5 27 -3 57 57 SSW 13 20 29.88 1012 10 16 0.00 0.00
8:35 am 08:35 Sunny 43 6 27 -3 53 53 SW 12 19 29.88 1012 10 16 0.00 0.00
8:55 am 08:55 Sunny 46 8 27 -3 46 46 SW 15 24 29.85 1011 10 16 0.00 0.00
9:15 am 09:15 Sunny 46 8 27 -3 46 46 WSW 13 20 29.85 1011 10 16 0.00 0.00
9:35 am 09:35 Sunny 48 9 27 -3 43 43 W 12 19 29.85 1011 10 16 0.00 0.00
9:55 am 09:55 Sunny 50 10 27 -3 40 40 W 10 17 29.85 1011 10 16 0.00 0.00
10:15 am 10:15 Sunny 52 11 27 -3 38 38 WNW 10 17 29.83 1010 10 16 0.00 0.00
10:35 am 10:35 Sunny 52 11 27 -3 38 38 W 9 15 29.83 1010 10 16 0.00 0.00
10:55 am 10:55 Sunny 54 12 27 -3 35 35 NNW 7 11 29.83 1010 10 16 0.00 0.00
11:15 am 11:15 Sunny 55 13 27 -3 33 33 N 9 15 29.83 1010 10 16 0.00 0.00
11:35 am 11:35 Sunny 55 13 25 -4 31 31 NNE 10 17 29.80 1009 10 16 0.00 0.00
11:55 am 11:55 Sunny 55 13 27 -3 33 33 N 10 17 29.83 1010 10 16 0.00 0.00
12:15 pm 12:15 Sunny 55 13 27 -3 33 33 N 9 15 29.83 1010 10 16 0.00 0.00
12:35 pm 12:35 Sunny 55 13 27 -3 33 33 N 12 19 29.80 1009 10 16 0.00 0.00
12:55 pm 12:55 Sunny 55 13 27 -3 33 33 N 9 15 29.83 1010 10 16 0.00 0.00
1:15 pm 13:15 Sunny 57 14 27 -3 31 31 N 13 20 29.77 1008 10 16 0.00 0.00
1:35 pm 13:35 Sunny 55 13 28 -2 36 36 N 9 15 29.80 1009 10 16 0.00 0.00
1:55 pm 13:55 Sunny 55 13 27 -3 33 33 NNE 15 24 29.80 1009 10 16 0.00 0.00
2:15 pm 14:15 Sunny 55 13 27 -3 33 33 NE 13 20 29.80 1009 10 16 0.00 0.00
2:35 pm 14:35 Sunny 55 13 28 -2 36 36 N 14 22 29.80 1009 10 16 0.00 0.00
2:55 pm 14:55 Sunny 54 12 28 -2 38 38 NNE 14 22 29.80 1009 10 16 0.00 0.00
3:15 pm 15:15 Sunny 52 11 28 -2 41 41 NNE 18 30 29.80 1009 10 16 0.00 0.00
3:35 pm 15:35 Sunny 52 11 28 -2 41 41 NNE 15 24 29.80 1009 10 16 0.00 0.00
3:55 pm 15:55 Sunny 52 11 28 -2 41 41 N 17 28 29.80 1009 10 16 0.00 0.00
4:15 pm 16:15 Sunny 48 9 28 -2 46 46 NNE 15 24 29.85 1011 10 16 0.00 0.00
4:35 pm 16:35 Sunny 48 9 28 -2 46 46 NNE 14 22 29.85 1011 10 16 0.00 0.00
4:55 pm 16:55 Sunny 48 9 28 -2 46 46 NNE 15 24 29.85 1011 10 16 0.00 0.00
5:15 pm 17:15 Sunny 48 9 28 -2 46 46 NNE 15 24 29.83 1010 10 16 0.00 0.00
5:35 pm 17:35 Sunny 45 7 28 -2 53 53 NNE 15 24 29.85 1011 10 16 0.00 0.00
5:55 pm 17:55 Sunny 45 7 28 -2 53 53 NE 14 22 29.83 1010 10 16 0.00 0.00
6:15 pm 18:15 Sunny 43 6 28 -2 57 57 NE 14 22 29.88 1012 10 16 0.00 0.00
6:35 pm 18:35 Mostly Clear 39 4 28 -2 65 65 N 15 24 29.91 1013 10 16 0.00 0.00
6:55 pm 18:55 Mostly Cloudy 39 4 27 -3 61 61 N 18 30 29.94 1014 10 16 0.00 0.00
7:15 pm 19:15 Mostly Clear 37 3 27 -3 65 65 N 21 33 29.97 1015 10 16 0.00 0.00
7:35 pm 19:35 Clear 37 3 25 -4 60 60 NNE 22 35 30.00 1016 10 16 0.00 0.00
7:55 pm 19:55 Mostly Cloudy 36 2 21 -6 56 56 N 18 30 30.03 1017 10 16 0.00 0.00
8:15 pm 20:15 Cloudy 34 1 21 -6 60 60 N 18 30 30.03 1017 10 16 0.00 0.00
8:35 pm 20:35 Mostly Cloudy 34 1 19 -7 56 56 N 22 35 30.09 1019 10 16 0.00 0.00
8:55 pm 20:55 Mostly Cloudy 34 1 19 -7 56 56 N 16 26 30.09 1019 10 16 0.00 0.00
9:15 pm 21:15 Cloudy 34 1 19 -7 56 56 NNE 13 20 30.03 1017 10 16 0.00 0.00
9:35 pm 21:35 Mostly Cloudy 30 -1 19 -7 64 64 NE 14 22 30.03 1017 10 16 0.00 0.00
9:55 pm 21:55 Mostly Clear 28 -2 21 -6 74 74 N 13 20 30.06 1018 10 16 0.00 0.00
10:15 pm 22:15 Clear 27 -3 19 -7 74 74 NE 6 9 30.09 1019 10 16 0.00 0.00
10:35 pm 22:35 Clear 27 -3 21 -6 80 80 N 15 24 30.15 1021 10 16 0.00 0.00
10:55 pm 22:55 Clear 27 -3 21 -6 80 80 N 13 20 30.15 1021 10 16 0.00 0.00
11:15 pm 23:15 Clear 25 -4 18 -8 74 74 N 17 28 30.15 1021 10 16 0.00 0.00
11:35 pm 23:35 Clear 25 -4 18 -8 74 74 N 15 24 30.15 1021 10 16 0.00 0.00
11:55 pm 23:55 Clear 23 -5 18 -8 80 80 N 13 20 30.21 1023 10 16 0.00 0.00

Powered by AerisWeather